EUTELSAT 5 WEST A (27460 NORAD) Tracking and Keplerian Element Data

This shows tracking and keplerian element data for the satellite.

Feedback or suggestion? Click here.




ElementValue
Catalog27460
NameEUTELSAT 5 WEST A
Epoch Orbit7507
Epoch Day13.69794417
Epoch Year2023
RAAN86.926
Inclination2.8262
Eccentricity0.0009674
Argument of Perigee340.3714
Mean Anonmoly254.7316
Mean Motion0.98356816
Decay Rate-1.4E-06
L11 27460U 02035A 23013.69794417 -.00000140 00000+0 00000+0 0 9999
L22 27460 2.8262 86.9260 0009674 340.3714 254.7316 0.98356816 75073



Live tracking and technical data element details for EUTELSAT 5 WEST A (NORAD 27460). EUTELSAT 5 WEST A can be tracked NOW for your location showing map with azimuth and elevation plus other details from your city location.







IsCatalogInMostPopularTable: catalog: 27460, numindb: 395
Update: records affected: 1



GetName: 27460 EUTELSAT 5 WEST A

Hit Count: updated at: Thu, 16 Apr 2026 05:44:17 GMT